sat.trackr.live / text

‹ back to catalog

STARLINK-34673

NORAD 65090 · 2025-167N

PAYLOAD ACTIVE UNKNOWN

§ Identity

Operator
Country
US
Launch date
2025-08-04
Launch site
AFETR
Launch vehicle
Mass (kg)
RCS (m²)

Purposes: comms

External: N2YO · Heavens-Above · Gunter

§ Orbital elements

Epoch: 2026-09-20T13:01:14.369952Z

Period
94.01 min
Inclination
53.1620°
Eccentricity
0.0001501
Mean motion
15.31713984 rev/d
Perigee alt
469.7 km
Apogee alt
471.7 km
Semi-major
6,848.8 km
B*
2.3411e-4
RAAN
201.5175°
Arg perigee
84.5623°
Mean anomaly
275.5550°
Rev number
6,331

§ Raw data

STARLINK-346731 65090U 25167N   26263.54252743  .00006909  00000+0  23411-3 0  99992 65090  53.1620 201.5175 0001501  84.5623 275.5550 15.31713984 63319

JSON: /api/v1/satellites/65090 · /tle

For live sub-satellite position, see the globe view (requires WebGL).

§ Visibility from observer

Set your observer location to see the next 7 days of passes ≥ 10°. The values pass through the URL so the page stays shareable.

No JS? Fill the form by hand. The geolocation button needs JavaScript.